Overview Statistics Trail Chart Weather Telemetry Raw packets
 

This is the latest recevied weather packets stored in our database for station/object KF6FPU-15. If no packets are shown the sender has not sent any weather packets the latest 10 day(s).

<< 47 48 49 50 51 52 53 >>
Time Temp. Humidity Pressure Rain* Wind** Luminosity Snow
1787869984 46.67° C 17% 1012 hPa - - - -
1787868784 46.67° C 17% 1012.2 hPa - - - -
1787868184 46.67° C 17% 1012.4 hPa - - - -
1787867584 46.67° C 17% 1012.4 hPa - - - -
1787866984 46.67° C 17% 1012.6 hPa - - - -
1787866384 46.67° C 17% 1012.7 hPa - - - -
1787865784 46.67° C 17% 1012.7 hPa - - - -
1787865184 46.67° C 17% 1012.7 hPa - - - -
1787864584 46.67° C 17% 1012.8 hPa - - - -
1787863984 46.67° C 17% 1012.9 hPa - - - -
1787863384 46.67° C 17% 1012.8 hPa - - - -
1787862184 46.11° C 17% 1013 hPa - - - -
1787861584 45.56° C 17% 1012.9 hPa - - - -
1787860984 45° C 17% 1012.9 hPa - - - -
1787860384 44.44° C 17% 1012.9 hPa - - - -
1787859784 43.89° C 18% 1013.1 hPa - - - -
1787859184 42.78° C 18% 1013.1 hPa - - - -
1787858584 41.11° C 18% 1013.1 hPa - - - -
1787857984 38.89° C 18% 1013.2 hPa - - - -
1787857384 37.22° C 18% 1013.4 hPa - - - -
1787856784 36.67° C 19% 1013.5 hPa - - - -
1787855584 36.67° C 19% 1013.6 hPa - - - -
1787854984 36.11° C 19% 1013.7 hPa - - - -
1787854384 35.56° C 19% 1013.6 hPa - - - -
1787853784 35.56° C 19% 1013.4 hPa - - - -

* Rain since midnight (hover to see other rain measurements)
** Current wind speed in m/s (hover to see current wind gust speed)